Weather History for Missoula, MT

Change the Weather History Date:

Thursday, November 8, 2012

  Actual Average Record
Temperature  
Mean Temperature 32 °F 36 °F  
Max Temperature 38 °F 46 °F 60 °F (1978)
Min Temperature 26 °F 27 °F 3 °F (2003)
Degree Days  
Heating Degree Days 33 29  
Month to date heating degree days 166 218  
Since 1 July heating degree days 969 1160  
Cooling Degree Days 0 0  
Month to date cooling degree days 0 0  
Year to date cooling degree days 415 332  
Moisture  
Dew Point 27 °F    
Average Humidity 76    
Maximum Humidity 92    
Minimum Humidity 59    
Precipitation  
Precipitation 0.11 in 0.04 in 0.53 in (1998)
Month to date precipitation 0.20 0.25  
Year to date precipitation 12.53 12.33  
Snow  
Snow 0.00 in - - ()
Month to date snowfall 0.0  
Year to date snowfall 33.2  
Since 1 July snowfall 4.0  
Snow Depth 0.00 in    
Sea Level Pressure  
Sea Level Pressure 29.81 in    
Wind  
Wind Speed 9 mph (SE)    
Max Wind Speed 23 mph    
Max Gust Speed 29 mph    
Visibility 5 miles    
Events Fog , Snow    
T = Trace of Precipitation, MM = Missing Value Source: NWS Daily Summary

Daily Weather History Graph

Daily Weather History Graph

Search for Another Location

Airport:

Trip Planner

Search our weather history database for the weather conditions in past years. The results will help you decide how hot, cold, wet, or windy it might be!

Date:

Astronomy

Nov. 08, 2012 Rise Set
Actual Time 7:30 AM MST 5:09 PM MST
Civil Twilight 6:57 AM MST 5:42 PM MST
Nautical Twilight 6:21 AM MST 6:18 PM MST
Astronomical Twilight 5:45 AM MST 6:54 PM MST
Moon 1:08 AM MST (11/8) 2:12 PM MST (11/8)
Length of Visible Light 10h 44m
Length of Day
9h 39m
Waning Crescent, 32% of the Moon is Illuminated
Nov 8
Waning Crescent
Nov 13
New
Nov 20
First Quarter
Nov 28
Full
Dec 6
Last Quarter

Hourly Weather History & Observations

Time (MST) Temp. Windchill Dew Point Humidity Pressure Visibility Wind Dir Wind Speed Gust Speed Precip Events Conditions
12:53 AM 28.9 °F - 23.0 °F 78% 30.04 in 10.0 mi Calm Calm - N/A   Clear
1:53 AM 27.0 °F - 25.0 °F 92% 30.04 in 10.0 mi Calm Calm - N/A   Clear
2:53 AM 26.1 °F - 21.9 °F 84% 30.01 in 10.0 mi Calm Calm - N/A   Clear
3:53 AM 27.0 °F 23.0 °F 23.0 °F 85% 29.99 in 10.0 mi NNW 3.5 mph - N/A   Clear
4:53 AM 28.0 °F 22.8 °F 25.0 °F 88% 29.97 in 10.0 mi WNW 4.6 mph - N/A   Overcast
5:53 AM 28.0 °F - 27.0 °F 96% 29.95 in 10.0 mi Calm Calm - N/A   Overcast
6:53 AM 28.0 °F - 26.1 °F 92% 29.93 in 10.0 mi Calm Calm - N/A   Overcast
7:53 AM 28.9 °F - 27.0 °F 92% 29.92 in 10.0 mi Calm Calm - N/A   Overcast
8:53 AM 37.0 °F 27.4 °F 25.0 °F 62% 29.88 in 10.0 mi SE 17.3 mph - N/A   Overcast
9:53 AM 37.9 °F 28.9 °F 24.1 °F 57% 29.86 in 10.0 mi SE 16.1 mph 21.9 mph N/A   Overcast
10:29 AM 35.6 °F 27.5 °F 28.4 °F 75% 29.81 in 4.0 mi East 11.5 mph - 0.00 in Snow Light Snow
10:53 AM 36.0 °F 29.0 °F 28.0 °F 73% 29.86 in 4.0 mi East 9.2 mph - 0.00 in Snow Light Snow
11:01 AM 33.8 °F 24.3 °F 28.4 °F 81% 29.79 in 1.8 mi SE 13.8 mph - 0.00 in Snow Light Snow
11:06 AM 33.8 °F 25.3 °F 30.2 °F 87% 29.78 in 1.0 mi SE 11.5 mph - 0.00 in Snow Light Snow
11:14 AM 33.8 °F 26.4 °F 30.2 °F 87% 29.77 in 0.8 mi SE 9.2 mph - 0.00 in Snow Light Snow
11:33 AM 32.0 °F 24.2 °F 30.2 °F 93% 29.77 in 1.2 mi South 9.2 mph - 0.01 in Snow Light Snow
11:36 AM 32.0 °F 24.2 °F 30.2 °F 93% 29.77 in 1.5 mi South 9.2 mph - 0.01 in Snow Light Snow
11:42 AM 33.8 °F 26.4 °F 30.2 °F 87% 29.77 in 3.0 mi SSE 9.2 mph - 0.01 in Snow Light Snow
11:53 AM 34.0 °F 26.6 °F 30.0 °F 85% 29.84 in 5.0 mi SE 9.2 mph - 0.01 in Snow Light Snow
12:04 PM 33.8 °F 25.3 °F 30.2 °F 87% 29.77 in 2.0 mi SE 11.5 mph - 0.01 in Snow Light Snow
12:09 PM 33.8 °F 25.3 °F 28.4 °F 81% 29.77 in 1.5 mi SE 11.5 mph - 0.01 in Snow Light Snow
12:27 PM 33.8 °F 25.8 °F 28.4 °F 81% 29.78 in 1.0 mi ESE 10.4 mph 19.6 mph 0.02 in Snow Light Snow
12:39 PM 35.6 °F 26.6 °F 28.4 °F 75% 29.76 in 1.5 mi East 13.8 mph - 0.02 in Snow Light Snow
12:53 PM 34.0 °F 24.2 °F 28.9 °F 82% 29.84 in 1.8 mi ESE 15.0 mph - 0.02 in Snow Light Snow
1:02 PM 33.8 °F 23.9 °F 30.2 °F 87% 29.75 in 1.2 mi ESE 15.0 mph - 0.01 in Snow Light Snow
1:21 PM 35.6 °F 25.9 °F 30.2 °F 81% 29.74 in 3.0 mi SE 16.1 mph - 0.01 in   Overcast
1:30 PM 35.6 °F 25.9 °F 30.2 °F 81% 29.73 in 10.0 mi ESE 16.1 mph - 0.01 in   Overcast
1:53 PM 36.0 °F 27.5 °F 28.9 °F 76% 29.79 in 10.0 mi ESE 12.7 mph - 0.01 in   Overcast
2:53 PM 37.0 °F 28.1 °F 25.0 °F 62% 29.79 in 10.0 mi ESE 15.0 mph 20.7 mph N/A   Overcast
3:53 PM 34.0 °F 23.0 °F 26.1 °F 73% 29.81 in 10.0 mi SE 18.4 mph 23.0 mph N/A   Overcast
4:53 PM 35.1 °F 25.2 °F 24.1 °F 64% 29.81 in 10.0 mi ESE 16.1 mph 23.0 mph N/A   Overcast
5:53 PM 34.0 °F 25.5 °F 24.1 °F 67% 29.79 in 10.0 mi SE 11.5 mph - N/A   Overcast
6:53 PM 34.0 °F 25.0 °F 24.1 °F 67% 29.81 in 10.0 mi SE 12.7 mph - N/A   Overcast
7:53 PM 34.0 °F 23.0 °F 24.1 °F 67% 29.78 in 10.0 mi SE 18.4 mph 27.6 mph N/A   Overcast
8:53 PM 34.0 °F 24.6 °F 23.0 °F 64% 29.76 in 10.0 mi SE 13.8 mph - 0.00 in   Overcast
9:53 PM 34.0 °F 24.2 °F 23.0 °F 64% 29.78 in 10.0 mi SE 15.0 mph - N/A   Overcast
10:13 PM 32.0 °F 21.2 °F 24.8 °F 75% 29.73 in 4.0 mi ESE 16.1 mph 28.8 mph 0.00 in Snow Light Snow
10:16 PM 32.0 °F 21.6 °F 26.6 °F 80% 29.73 in 2.0 mi ESE 15.0 mph 28.8 mph 0.00 in Snow Light Snow
10:18 PM 32.0 °F 21.2 °F 26.6 °F 80% 29.73 in 1.5 mi ESE 16.1 mph 25.3 mph 0.00 in Snow Light Snow
10:20 PM 30.2 °F 19.8 °F 26.6 °F 86% 29.72 in 1.0 mi ESE 13.8 mph - 0.00 in Snow Light Snow
10:29 PM 30.2 °F 21.3 °F 28.4 °F 93% 29.72 in 0.5 mi ESE 10.4 mph - 0.01 in Fog , Snow Snow
10:36 PM 30.2 °F 23.4 °F 28.4 °F 93% 29.72 in 0.5 mi ESE 6.9 mph - 0.02 in Fog , Snow Snow
10:53 PM 30.0 °F 23.2 °F 28.9 °F 96% 29.79 in 0.5 mi ESE 6.9 mph - 0.06 in Fog , Snow Snow
11:00 PM 30.2 °F 22.6 °F 28.4 °F 93% 29.72 in 0.8 mi East 8.1 mph - 0.00 in Snow Light Snow
11:02 PM 30.2 °F 23.4 °F 28.4 °F 93% 29.72 in 1.2 mi ESE 6.9 mph - 0.00 in Snow Light Snow
11:05 PM 30.2 °F 24.3 °F 28.4 °F 93% 29.71 in 2.0 mi ESE 5.8 mph - 0.01 in Snow Light Snow
11:15 PM 30.2 °F 23.4 °F 28.4 °F 93% 29.71 in 4.0 mi ESE 6.9 mph - 0.01 in Snow Light Snow
11:53 PM 30.0 °F 23.2 °F 28.0 °F 92% 29.80 in 3.0 mi ESE 6.9 mph - 0.01 in Snow Light Snow